Dresden Klotzsche, Germany

9:42 PM CEST on August 28, 2016 (GMT +0200)
Dresden Klotzsche

Weather History for 10488 - November, 2013

Change the Weather History Date:

Friday, November 22, 2013

  Actual Average Record
Temperature  
Mean Temperature 39 °F -  
Max Temperature 41 °F - - ()
Min Temperature 37 °F - - ()
Degree Days  
Heating Degree Days 26    
Moisture  
Dew Point 40 °F    
Average Humidity 100    
Maximum Humidity 100    
Minimum Humidity 96    
Precipitation  
Precipitation 0.01 in - - ()
Sea Level Pressure  
Sea Level Pressure 29.74 in    
Wind  
Wind Speed 6 mph ()    
Max Wind Speed 12 mph    
Max Gust Speed -    
Visibility 1.6 miles    
Events Fog , Rain    
T = Trace of Precipitation, MM = Missing Value Source: Averaged Metar Reports

Daily Weather History Graph

Daily Weather History Graph

Search for Another Location

Airport or City:

Trip Planner

Search our weather history database for the weather conditions in past years. The results will help you decide how hot, cold, wet, or windy it might be!

Date:

Astronomy

Nov. 22, 2013 Rise Set
Actual Time 7:33 AM CET 4:08 PM CET
Civil Twilight 6:55 AM CET 4:46 PM CET
Nautical Twilight 6:14 AM CET 5:27 PM CET
Astronomical Twilight 5:35 AM CET 6:06 PM CET
Moon 8:32 PM CET (11/22) 11:00 AM CET (11/22)
Length of Visible Light 9h 50m
Length of Day
8h 35m
Waning Gibbous, 80% of the Moon is Illuminated
Nov 22
Waning Gibbous
Nov 25
Last Quarter
Dec 3
New
Dec 9
First Quarter
Dec 17
Full

Hourly Weather History & Observations

Time (CET) Temp. Windchill Dew Point Humidity Pressure Visibility Wind Dir Wind Speed Gust Speed Precip Events Conditions
12:00 AM 39 °F - 39 °F 98% 29.66 in 3 mi ENE 6.7 mph - - Rain Light Rain
12:20 AM 39.2 °F 33.6 °F 39.2 °F 100% 29.62 in 3.7 mi ENE 8.1 mph - N/A   Mostly Cloudy
12:50 AM 39.2 °F 33.6 °F 39.2 °F 100% 29.62 in 3.1 mi NE 8.1 mph - N/A   Light Drizzle
1:00 AM 39 °F - 38 °F 96% 29.66 in 3 mi NE 8.9 mph - - Rain Light Drizzle
1:20 AM 39.2 °F 33.6 °F 39.2 °F 100% 29.62 in 3.1 mi NE 8.1 mph - N/A   Light Drizzle
1:50 AM 39.2 °F 33.6 °F 39.2 °F 100% 29.62 in 3.1 mi NE 8.1 mph - N/A   Mostly Cloudy
2:00 AM 39 °F - 38 °F 97% 29.66 in 3 mi NE 8.9 mph - - Rain Light Drizzle
2:20 AM 39.2 °F 34.2 °F 39.2 °F 100% 29.62 in 3.1 mi NE 6.9 mph - N/A   Mostly Cloudy
2:50 AM 39.2 °F 34.2 °F 39.2 °F 100% 29.62 in 3.7 mi ENE 6.9 mph - N/A   Mostly Cloudy
3:00 AM 39 °F - 39 °F 98% 29.67 in 4 mi ENE 6.7 mph - -   Mist
3:20 AM 39.2 °F 33.6 °F 39.2 °F 100% 29.62 in 3.7 mi ENE 8.1 mph - N/A   Mostly Cloudy
3:50 AM 39.2 °F 33.0 °F 39.2 °F 100% 29.62 in 3.7 mi NE 9.2 mph - N/A   Mostly Cloudy
4:20 AM 39.2 °F 32.0 °F 39.2 °F 100% 29.62 in 3.1 mi ENE 11.5 mph - N/A   Mostly Cloudy
4:50 AM 39.2 °F 32.5 °F 39.2 °F 100% 29.65 in - ENE 10.4 mph - N/A   Mostly Cloudy
5:00 AM 39 °F - 39 °F 99% 29.68 in 3 mi ENE 8.9 mph - -   Mist
5:20 AM 39.2 °F 33.6 °F 39.2 °F 100% 29.65 in - NE 8.1 mph - N/A   Mostly Cloudy
5:50 AM 39.2 °F 35.0 °F 39.2 °F 100% 29.65 in 2.2 mi ENE 5.8 mph - N/A   Mostly Cloudy
6:00 AM 39 °F - 39 °F 100% 29.70 in 2 mi ENE 6.7 mph - -   Mist
6:20 AM 39.2 °F 34.2 °F 39.2 °F 100% 29.65 in - ENE 6.9 mph - N/A   Mostly Cloudy
6:50 AM 39.2 °F 34.2 °F 39.2 °F 100% 29.68 in 1.9 mi NE 6.9 mph - N/A   Mostly Cloudy
7:00 AM 40 °F - 39 °F 97% 29.71 in 2 mi NE 6.7 mph - -   Mist
7:20 AM 39.2 °F 35.0 °F 39.2 °F 100% 29.68 in 0.8 mi NE 5.8 mph - N/A   Mostly Cloudy
7:50 AM 39.2 °F 35.0 °F 39.2 °F 100% 29.68 in 1.2 mi NE 5.8 mph - N/A   Mostly Cloudy
8:00 AM 40 °F - 39 °F 97% 29.73 in 1 mi NE 4.5 mph - -   Mist
8:20 AM 39.2 °F 34.2 °F 39.2 °F 100% 29.68 in 0.8 mi NE 6.9 mph - N/A Rain Light Rain
8:50 AM 39.2 °F 33.6 °F 39.2 °F 100% 29.68 in 1.1 mi ENE 8.1 mph - N/A Rain Light Rain
9:00 AM 40 °F - 40 °F 98% 29.74 in 1 mi NE 6.7 mph - - Rain Light Rain
9:20 AM 39.2 °F 34.2 °F 39.2 °F 100% 29.71 in 1.4 mi ENE 6.9 mph - N/A Rain Light Rain
9:50 AM 41.0 °F 35.8 °F 41.0 °F 100% 29.71 in 1.6 mi NE 8.1 mph - N/A Rain Light Rain
10:20 AM 41.0 °F 36.4 °F 41.0 °F 100% 29.71 in 1.7 mi ENE 6.9 mph - N/A   Mostly Cloudy
10:50 AM 41.0 °F 35.2 °F 41.0 °F 100% 29.71 in 1.1 mi NE 9.2 mph - N/A   Mostly Cloudy
11:00 AM 40 °F - 40 °F 100% 29.75 in 1 mi NE 8.9 mph - - Rain Light Rain
11:20 AM 41.0 °F 36.4 °F 41.0 °F 100% 29.71 in 1.1 mi ENE 6.9 mph - N/A   Mostly Cloudy
11:50 AM 41.0 °F 35.8 °F 41.0 °F 100% 29.71 in 1.0 mi NE 8.1 mph - N/A   Mostly Cloudy
12:00 PM 40 °F - 40 °F 100% 29.76 in 1 mi NE 8.9 mph - -   Mist
12:20 PM 41.0 °F 36.4 °F 41.0 °F 100% 29.71 in 1.1 mi ENE 6.9 mph - N/A   Mostly Cloudy
12:50 PM 41.0 °F 36.4 °F 41.0 °F 100% 29.71 in 1.4 mi NE 6.9 mph - N/A   Mostly Cloudy
1:00 PM 40 °F - 40 °F 100% 29.76 in 1 mi NE 6.7 mph - -   Mist
1:20 PM 41.0 °F 36.4 °F 41.0 °F 100% 29.71 in 1.4 mi NE 6.9 mph - N/A   Mostly Cloudy
1:50 PM 41.0 °F 36.4 °F 41.0 °F 100% 29.74 in 1.4 mi NE 6.9 mph - N/A   Mostly Cloudy
2:00 PM 41 °F - 41 °F 98% 29.77 in 1 mi NE 6.7 mph - -   Mist
2:20 PM 41.0 °F 36.4 °F 41.0 °F 100% 29.74 in 1.4 mi ENE 6.9 mph - N/A   Mostly Cloudy
2:50 PM 41.0 °F 37.1 °F 41.0 °F 100% 29.74 in 1.5 mi NE 5.8 mph - N/A   Mostly Cloudy
3:00 PM 41 °F - 40 °F 96% 29.79 in 1 mi NE 6.7 mph - -   Mist
3:20 PM 41.0 °F 36.4 °F 41.0 °F 100% 29.74 in 1.5 mi NE 6.9 mph - N/A   Mostly Cloudy
3:50 PM 41.0 °F 37.1 °F 41.0 °F 100% 29.77 in 1.4 mi NE 5.8 mph - N/A   Mostly Cloudy
4:20 PM 41.0 °F 37.1 °F 41.0 °F 100% 29.77 in 0.6 mi NE 5.8 mph - N/A Fog Fog
4:50 PM 41.0 °F 37.1 °F 41.0 °F 100% 29.77 in 0.3 mi NE 5.8 mph - N/A Fog Light Drizzle
5:00 PM 40 °F - 40 °F 100% 29.83 in 0 mi NE 4.5 mph - - Rain Light Drizzle
5:20 PM 41.0 °F 37.1 °F 41.0 °F 100% 29.80 in 0.2 mi NNE 5.8 mph - N/A Fog Light Drizzle
5:50 PM 41.0 °F 39.0 °F 41.0 °F 100% 29.80 in 0.2 mi NNE 3.5 mph - N/A Fog Light Drizzle
6:00 PM 40 °F - 40 °F 100% 29.85 in 0 mi NNE 2.2 mph - - Rain Light Drizzle
6:20 PM 41.0 °F 38.0 °F 41.0 °F 100% 29.80 in 0.2 mi NNE 4.6 mph - N/A Fog Light Drizzle
6:50 PM 41.0 °F 38.0 °F 41.0 °F 100% 29.80 in 0.1 mi NNE 4.6 mph - N/A Fog Light Drizzle
7:00 PM 40 °F - 40 °F 100% 29.86 in 0 mi North 4.5 mph - - Rain Light Drizzle
7:20 PM 41.0 °F 37.1 °F 41.0 °F 100% 29.80 in 0.2 mi NNE 5.8 mph - N/A Fog Light Drizzle
7:50 PM 41.0 °F 37.1 °F 41.0 °F 100% 29.83 in 0.6 mi NE 5.8 mph - N/A Fog Light Drizzle
8:00 PM 40 °F - 40 °F 100% 29.86 in 1 mi ENE 4.5 mph - - Rain Light Drizzle
8:20 PM 41.0 °F 39.0 °F 41.0 °F 100% 29.83 in 1.2 mi ENE 3.5 mph - N/A   Light Drizzle
8:50 PM 41.0 °F 38.0 °F 41.0 °F 100% 29.83 in 1.2 mi East 4.6 mph - N/A   Light Drizzle
9:00 PM 40 °F - 40 °F 100% 29.88 in 1 mi ENE 4.5 mph - - Rain Light Drizzle
9:20 PM 41.0 °F 39.0 °F 41.0 °F 100% 29.86 in 1.6 mi East 3.5 mph - N/A   Mostly Cloudy
9:50 PM 41.0 °F 39.0 °F 41.0 °F 100% 29.86 in 1.7 mi North 3.5 mph - N/A   Light Drizzle
10:20 PM 41.0 °F 37.1 °F 41.0 °F 100% 29.86 in 1.4 mi NNE 5.8 mph - N/A   Mostly Cloudy
10:50 PM 41.0 °F - 41.0 °F 100% 29.86 in - ENE 2.3 mph - N/A   Mostly Cloudy
11:00 PM 40 °F - 40 °F 100% 29.90 in 2 mi ENE 4.5 mph - - Rain Light Drizzle
11:20 PM 41.0 °F - 41.0 °F 100% 29.86 in 2.2 mi Variable 1.2 mph - N/A   Mostly Cloudy
11:50 PM 41.0 °F - 41.0 °F 100% 29.86 in 2.5 mi East 2.3 mph - N/A   Light Drizzle